HYAKURI_(JASDF) current weather conditions

sailwx.info

Wind from 320 at 5 knots

Air temperature 1.0° C
Visibility: greater than 5.4 NM
Dewpoint -3.0° C

Last reported at 2017-Jan-20 22:15 UTC.
Time now 2017-Jan-21 00:17 UTC

Location: N 36°11' E 140°25'.
View on Google Maps.

See reports from other nearby stations

  
Tides and Currents Weather Stations Pressure Air Temp Water Temp Dewpoint Dewpoint Depression Visibility Wind Speed Wind Dir Waves Ship Positions
date/time (UTC)wind fromknots sea level pressurealtimeterstation pressurevisibilityair tempwater tempwave heightnotes
2017-Jan-20 23:00 320 5 5.4 2.0
2017-Jan-20 22:15 320 5 5.4 1.0
2017-Jan-20 22:00 300 6 5.4 1.0
2017-Jan-20 21:00 340 6 5.4 2.0
2017-Jan-20 20:00 010 7 5.4 2.0
2017-Jan-20 19:00 350 11 5.4 3.0
2017-Jan-20 18:41 340 11 5.4 3.0
2017-Jan-20 18:00 340 7 5.4 3.0 Light rain showers.
2017-Jan-20 17:21 360 8 5.4 3.0 Light rain showers.
2017-Jan-20 17:00 350 8 5.4 3.0
2017-Jan-20 16:27 360 8 5.4 3.0
2017-Jan-20 16:00 350 9 5.4 3.0 Light rain.
2017-Jan-20 15:00 350 13 5.4 3.0 Light rain.
2017-Jan-20 14:35 350 13 5.4 3.0 Light rain.
2017-Jan-20 14:00 350 9 5.4 3.0
2017-Jan-20 13:00 330 8 5.4 2.0
2017-Jan-20 12:39 330 8 5.4 2.0
2017-Jan-20 12:00 360 11 5.4 2.0
2017-Jan-20 11:46 360 11 5.4 2.0
2017-Jan-20 11:00 320 4 5.4 2.0
2017-Jan-20 10:36 340 8 5.4 2.0
2017-Jan-20 10:00 330 8 3.8 2.0 Light rain.
2017-Jan-20 09:30 340 9 3.2 2.0 Light rain.
2017-Jan-20 09:00 340 6 2.2 3.0 Light rain. Mist.
2017-Jan-20 08:51 340 6 2.2 3.0 Light rain. Mist.
2017-Jan-20 08:16 310 6 1.3 3.0 Light rain. Mist.
2017-Jan-20 08:00 350 6 2.2 3.0 Light rain. Mist.
2017-Jan-20 07:00 350 6 2.2 3.0 Light rain. Mist.
2017-Jan-20 06:29 020 8 2.2 3.0 Light rain. Mist.
2017-Jan-20 06:00 350 6 2.2 3.0 Light rain. Mist.
2017-Jan-20 05:31 350 6 1.9 3.0 Light rain. Mist.
2017-Jan-20 05:06 330 6 1.6 3.0 Light rain. Mist.
2017-Jan-20 05:00 310 6 1.9 3.0 Light rain. Mist.
2017-Jan-20 04:51 310 6 1.9 3.0 Light rain. Mist.
2017-Jan-20 04:13 360 7 2.2 3.0 Light rain. Mist.
2017-Jan-20 04:00 360 7 2.2 3.0 Light rain. Mist.
2017-Jan-20 03:51 360 7 2.2 3.0 Light rain. Mist.
2017-Jan-20 03:37 020 7 2.2 3.0 Light rain. Mist.
2017-Jan-20 03:11 350 7 3.2 2.0 Light rain.
2017-Jan-20 03:00 340 7 2.7 2.0 Light rain. Mist.
2017-Jan-20 02:22 330 5 3.2 2.0 Light rain.
2017-Jan-20 02:00 310 7 3.2 1.0 Light rain.
2017-Jan-20 01:46 320 7 3.2 1.0 Light rain.
2017-Jan-20 01:24 320 6 3.2-0.0 Light rain.
2017-Jan-20 01:10 320 6 1.9-0.0 Light drizzle snow. Mist.
2017-Jan-20 01:00 310 2 0.9-0.0 Light snow. Mist.
2017-Jan-20 00:46 310 2 0.8 1.0 Light snow. Mist.
2017-Jan-20 00:38 330 1 1.1 1.0 Light snow.
2017-Jan-20 00:33 330 2 1.3 1.0 Light snow.
2017-Jan-20 00:22 340 2 1.6 2.0 Light snow.
2017-Jan-20 00:20 350 2 2.7 2.0 Light snow.
2017-Jan-20 00:00 350 7 5.4 2.0 Light snow.
2017-Jan-19 23:03 330 6 5.4 2.0 Light snow.
2017-Jan-19 23:00 340 7 5.4 2.0
2017-Jan-19 22:00 360 6 5.4-0.0
2017-Jan-19 21:00 350 6 5.4 1.0
2017-Jan-19 20:00 360 5 5.4-0.0
2017-Jan-19 19:24 360 5 5.4-0.0
2017-Jan-19 19:00 360 5 5.4-0.0
2017-Jan-19 18:00 340 6 5.4-0.0
2017-Jan-19 17:00 010 6 5.4-3.0
2017-Jan-19 16:00 360 6 5.4-1.0
2017-Jan-19 15:00 340 6 5.4-2.0
2017-Jan-19 14:00 330 4 5.4-1.0
2017-Jan-19 13:00 330 2 5.4-1.0
2017-Jan-19 12:00 020 5 5.4-0.0
2017-Jan-19 11:00 030 5 5.4 1.0
2017-Jan-19 10:00 040 6 5.4 3.0
2017-Jan-19 09:00 020 8 5.4 3.0
2017-Jan-19 08:00 120 4 5.4 7.0
2017-Jan-19 07:00 110 6 5.4 9.0
2017-Jan-19 06:00 230 2 5.410.0
2017-Jan-19 05:00 5.410.0
2017-Jan-19 04:00 5.410.0
2017-Jan-19 03:00 5.4 7.0
2017-Jan-19 02:00 220 2 5.4 6.0
2017-Jan-19 01:00 5.4 4.0
2017-Jan-19 00:00 200 4 5.4 2.0